Content
SEND FEEDBACK

Daily
Averages
Monthly
Summary
United States of America

SENTINEL BUTTE, NORTH DAKOTA


Home > North America > United States > North Dakota
Elevation: 844 meters     Latitude: 46 55N     Longitude: 104 00W

WEATHER
 
SELECT A DAY
Number of Records: 85,493;   Date Range: 11/18/10 - 8/19/14
 
SHARE

PRINT THIS DATA

[ ← Previous Day ]
WEATHER ALMANAC - 31 JANUARY, 2013
[ Next Day → ]
[ °F ]   °C
Weather ElementAverageHighLow
Temperature-22.2 °C-10 °C (11:35 pm)-29 °C (5:55 am)
Dewpoint-26.1 °C-14 °C (11:35 pm)-32 °C (5:55 am)
Humidity71.8 %85 % (10:55 pm)59 % (12:55 pm)
Barometer1021 hPa1024.7 hPa (8:35 am)1014.9 hPa (11:35 pm)
Wind Speed19.8 km/h42.6 km/h (12:55 am)
Wind Gust51.8 km/h (12:55 am)
Weather ElementAverage
Visibility15.8 km
Wind DirectionWSW (253.6 °)

Weather ElementTotal
Precipitation---
Heating Degree Days37.8 (Base 18.3)
Averaged from 67 records on 31 January, 2013
WEATHER CONDITIONS BREAKOUT
WIND DIRECTION BREAKOUT
WEATHER BY HOUR - 31 JANUARY, 2013
[ °F ]   °C
Local TimeTemperatureDewpointHumidityBarometerVisibilityWind DirectionWind SpeedGust SpeedPrecipitationEventsConditions
12:35 AM-23 °C-27 °C71 %1017.9 hPa12.9 kmNNW (340°)38.9 km/h44.4 km/hOvercast
12:55 AM-24 °C-28 °C70 %1018.3 hPa8 kmNNW (330°)42.6 km/h51.8 km/hSnowLight Snow
1:15 AM-24 °C-28 °C70 %1018.6 hPa8 kmNNW (330°)37 km/h50.1 km/hSnowLight Snow
1:35 AM-25 °C-28 °C77 %1019 hPa16.1 kmNNW (340°)27.8 km/hOvercast
1:55 AM-25 °C-28 °C77 %1019.3 hPa14.5 kmNNW (330°)29.6 km/hOvercast
2:15 AM-25 °C-29 °C70 %1019.6 hPa16.1 kmNNW (330°)27.8 km/hMostly Cloudy
2:35 AM-25 °C-29 °C70 %1020.3 hPa16.1 kmNNW (330°)27.8 km/hScattered Clouds
2:55 AM-25 °C-29 °C70 %1020.7 hPa14.5 kmNW (320°)31.5 km/h42.6 km/hMostly Cloudy
3:15 AM-26 °C-29 °C77 %1021 hPa16.1 kmNW (320°)29.6 km/h38.9 km/hScattered Clouds
3:35 AM-26 °C-30 °C70 %1021 hPa16.1 kmNNW (330°)25.9 km/hScattered Clouds
3:55 AM-27 °C-30 °C76 %1021 hPa16.1 kmNNW (340°)27.8 km/h35.2 km/hMostly Cloudy
4:15 AM-27 °C-30 °C76 %1021.3 hPa16.1 kmNNW (330°)24.1 km/hMostly Cloudy
4:35 AM-27 °C-30 °C76 %1021.7 hPa16.1 kmNNW (330°)16.7 km/hClear
5:15 AM-28 °C-30 °C84 %1022.7 hPa16.1 kmNW (310°)20.4 km/hOvercast
5:35 AM-28 °C-31 °C76 %1022.7 hPa16.1 kmNW (310°)11.1 km/hOvercast
5:55 AM-29 °C-32 °C76 %1023 hPa16.1 kmNW (310°)14.8 km/hOvercast
6:15 AM-29 °C-32 °C76 %1023 hPa16.1 kmNW (310°)14.8 km/hOvercast
6:35 AM-29 °C-32 °C76 %1023 hPa16.1 kmWNW (290°)14.8 km/hScattered Clouds
6:55 AM-29 °C-32 °C76 %1023.4 hPa16.1 kmWNW (300°)16.7 km/hMostly Cloudy
7:15 AM-29 °C-32 °C76 %1023.4 hPa16.1 kmWNW (300°)18.5 km/hMostly Cloudy
7:35 AM-29 °C-32 °C76 %1024 hPa16.1 kmWNW (290°)20.4 km/hPartly Cloudy
7:55 AM-28 °C-32 °C70 %1024.4 hPa16.1 kmWest (270°)16.7 km/hMostly Cloudy
8:15 AM-28 °C-32 °C70 %1024.4 hPa16.1 kmWNW (290°)22.2 km/hScattered Clouds
8:35 AM-28 °C-32 °C70 %1024.7 hPa16.1 kmWNW (290°)22.2 km/hPartly Cloudy
8:55 AM-27 °C-31 °C70 %1024.7 hPa16.1 kmWNW (290°)22.2 km/hPartly Cloudy
9:15 AM-27 °C-31 °C70 %1024.4 hPa16.1 kmWest (280°)18.5 km/hPartly Cloudy
9:35 AM-27 °C-30 °C76 %1024.7 hPa16.1 kmWest (270°)20.4 km/hPartly Cloudy
9:55 AM-26 °C-30 °C70 %1024.7 hPa16.1 kmWest (260°)20.4 km/hPartly Cloudy
10:15 AM-26 °C-30 °C70 %1024.7 hPa16.1 kmWest (260°)20.4 km/hClear
10:35 AM-25 °C-30 °C64 %1024.7 hPa16.1 kmWest (270°)24.1 km/hPartly Cloudy
10:55 AM-25 °C-29 °C70 %1024.4 hPa16.1 kmWest (270°)24.1 km/hClear
11:15 AM-24 °C-29 °C64 %1024.4 hPa16.1 kmWest (270°)20.4 km/hClear
11:35 AM-24 °C-29 °C64 %1024.4 hPa16.1 kmWest (260°)24.1 km/hClear
11:55 AM-24 °C-28 °C70 %1024 hPa16.1 kmWest (260°)24.1 km/hClear
12:15 PM-23 °C-28 °C65 %1023.7 hPa16.1 kmWest (270°)24.1 km/hPartly Cloudy
12:35 PM-23 °C-28 °C65 %1023.4 hPa16.1 kmWest (270°)20.4 km/hPartly Cloudy
12:55 PM-22 °C-28 °C59 %1023 hPa16.1 kmWest (270°)20.4 km/h29.6 km/hPartly Cloudy
1:15 PM-22 °C-27 °C65 %1022.7 hPa16.1 kmWest (260°)16.7 km/hPartly Cloudy
1:35 PM-22 °C-27 °C65 %1022.4 hPa16.1 kmWest (260°)16.7 km/hPartly Cloudy
1:55 PM-22 °C-27 °C65 %1022 hPa16.1 kmWest (260°)18.5 km/hPartly Cloudy
2:15 PM-21 °C-26 °C65 %1021.3 hPa16.1 kmWSW (250°)18.5 km/hClear
2:35 PM-21 °C-26 °C65 %1021.3 hPa16.1 kmWSW (250°)18.5 km/hClear
2:55 PM-20 °C-25 °C65 %1021.3 hPa16.1 kmWest (260°)25.9 km/h31.5 km/hClear
3:15 PM-21 °C-25 °C71 %1021.3 hPa16.1 kmWest (260°)14.8 km/hMostly Cloudy
3:35 PM-20 °C-25 °C65 %1021.3 hPa16.1 kmWSW (250°)18.5 km/hOvercast
3:55 PM-20 °C-25 °C65 %1021.3 hPa16.1 kmWSW (250°)16.7 km/hOvercast
4:15 PM-20 °C-24 °C71 %1021 hPa16.1 kmWSW (250°)18.5 km/hOvercast
4:35 PM-19 °C-24 °C66 %1020.7 hPa16.1 kmNorthOvercast
4:55 PM-19 °C-24 °C66 %1020.3 hPa16.1 kmWSW (250°)14.8 km/hOvercast
5:15 PM-19 °C-23 °C71 %1020.3 hPa16.1 kmNorthOvercast
5:35 PM-19 °C-23 °C71 %1020 hPa16.1 kmNorthOvercast
6:15 PM-18 °C-22 °C72 %1019 hPa16.1 kmSSW (200°)9.3 km/hOvercast
6:35 PM-18 °C-22 °C72 %1019 hPa16.1 kmSW (220°)11.1 km/hOvercast
6:55 PM-17 °C-21 °C72 %1018.6 hPa16.1 kmSW (220°)20.4 km/hOvercast
7:15 PM-17 °C-20 °C78 %1018.3 hPa16.1 kmSSW (210°)14.8 km/hOvercast
7:35 PM-16 °C-20 °C72 %1017.9 hPa16.1 kmSSW (210°)14.8 km/hOvercast
7:55 PM-15 °C-19 °C72 %1017.9 hPa16.1 kmSSW (200°)13 km/hOvercast
8:15 PM-15 °C-19 °C72 %1017.6 hPa16.1 kmSSW (200°)13 km/hOvercast
8:35 PM-15 °C-18 °C78 %1017.3 hPa16.1 kmSouth (190°)11.1 km/hOvercast
9:15 PM-15 °C-18 °C78 %1016.9 hPa16.1 kmSouth (190°)11.1 km/hOvercast
9:35 PM-14 °C-17 °C79 %1016.9 hPa16.1 kmSouth (190°)9.3 km/hOvercast
9:55 PM-14 °C-17 °C79 %1016.6 hPa16.1 kmSouth (180°)13 km/hOvercast
10:15 PM-14 °C-17 °C79 %1016.3 hPa16.1 kmSouth (180°)14.8 km/hOvercast
10:35 PM-13 °C-16 °C79 %1015.9 hPa16.1 kmSouth (180°)11.1 km/hOvercast
10:55 PM-13 °C-15 °C85 %1015.6 hPa16.1 kmSouth (170°)13 km/hOvercast
11:15 PM-12 °C-15 °C79 %1015.6 hPa16.1 kmSouth (180°)14.8 km/hOvercast
11:35 PM-10 °C-14 °C73 %1014.9 hPa16.1 kmSSW (200°)13 km/hOvercast
Hourly data recorded from K20U, located 0 kilometers away from Sentinel Butte, North Dakota







STORIES FROM OUR PARTNERS